ANZ626 NZQN-NZAA

Flight info

Callsign ANZ626
Flight time 1h 27m
Altitude 37000
Route SAVLA Y569 LOVTA Y655 POKOM Q277 DAVEE
Aircraft A320/M-SDE3FGHIRWY/LB1

Departure

Time 2026-05-09 05:29
Airport Queenstown Airport (NZQN)

Arrival

Time 2026-05-09 06:56
Airport Auckland International Airport (NZAA)
Time Latitude Longitude Altitude Speed Heading
2026-05-09 04:29 -45.02124 168.74009 1174 ft 0 kts 205°
2026-05-09 05:18 -45.02122 168.74011 1174 ft 3 kts 205°
2026-05-09 05:18 -45.02098 168.74027 1170 ft 4 kts 208°
2026-05-09 05:18 -45.02079 168.74043 1169 ft 3 kts 211°
2026-05-09 05:18 -45.02075 168.74046 1172 ft 0 kts 211°
2026-05-09 05:22 -45.02076 168.74046 1173 ft 1 kts 211°
2026-05-09 05:22 -45.02077 168.74041 1169 ft 1 kts 239°
2026-05-09 05:22 -45.02073 168.74035 1173 ft 1 kts 300°
2026-05-09 05:22 -45.02067 168.74038 1170 ft 1 kts 10°
2026-05-09 05:23 -45.02053 168.74049 1170 ft 3 kts 26°
2026-05-09 05:23 -45.02029 168.74066 1173 ft 5 kts 25°
2026-05-09 05:23 -45.01998 168.74085 1171 ft 4 kts 24°
2026-05-09 05:23 -45.01993 168.74089 1176 ft 0 kts 24°
2026-05-09 05:24 -45.01976 168.74098 1176 ft 8 kts 22°
2026-05-09 05:24 -45.01913 168.74160 1175 ft 12 kts 58°
2026-05-09 05:24 -45.01891 168.74268 1179 ft 12 kts 77°
2026-05-09 05:24 -45.01872 168.74389 1176 ft 15 kts 77°
2026-05-09 05:25 -45.01843 168.74573 1173 ft 23 kts 77°
2026-05-09 05:25 -45.01807 168.74801 1171 ft 22 kts 77°
2026-05-09 05:25 -45.01740 168.75228 1219 ft 23 kts 77°
2026-05-09 05:26 -45.01704 168.75448 1224 ft 22 kts 78°
2026-05-09 05:26 -45.01671 168.75658 1227 ft 21 kts 77°
2026-05-09 05:26 -45.01637 168.75792 1222 ft 12 kts 66°
2026-05-09 05:26 -45.01650 168.75801 1224 ft 1 kts 259°
2026-05-09 05:28 -45.01662 168.75714 1226 ft 38 kts 259°
2026-05-09 05:28 -45.01785 168.74939 1171 ft 119 kts 257°
2026-05-09 05:29 -45.02008 168.73586 1477 ft 151 kts 257°
2026-05-09 05:29 -45.02233 168.72083 2179 ft 159 kts 258°
2026-05-09 05:29 -45.02476 168.70528 2922 ft 166 kts 255°
2026-05-09 05:29 -45.02928 168.68992 3353 ft 178 kts 233°
2026-05-09 05:30 -45.03949 168.67885 3557 ft 203 kts 210°
2026-05-09 05:30 -45.05160 168.66751 3971 ft 212 kts 236°
2026-05-09 05:30 -45.05905 168.64952 4685 ft 212 kts 248°
2026-05-09 05:30 -45.06501 168.63055 5519 ft 211 kts 250°
2026-05-09 05:31 -45.07080 168.61142 6311 ft 210 kts 250°
2026-05-09 05:31 -45.07665 168.59257 7143 ft 208 kts 249°
2026-05-09 05:31 -45.08251 168.57434 8014 ft 204 kts 249°
2026-05-09 05:31 -45.08846 168.55632 8911 ft 200 kts 249°
2026-05-09 05:32 -45.09443 168.53860 9697 ft 200 kts 248°
2026-05-09 05:32 -45.10048 168.52086 9942 ft 199 kts 248°
2026-05-09 05:32 -45.10653 168.50328 9999 ft 198 kts 248°
2026-05-09 05:32 -45.11258 168.48582 10003 ft 197 kts 248°
2026-05-09 05:33 -45.11634 168.46748 10009 ft 194 kts 270°
2026-05-09 05:33 -45.11236 168.44914 10011 ft 204 kts 298°
2026-05-09 05:33 -45.10075 168.43670 10014 ft 229 kts 333°
2026-05-09 05:33 -45.08401 168.43489 10006 ft 248 kts 351°
2026-05-09 05:34 -45.06664 168.43626 10012 ft 249 kts 353°
2026-05-09 05:34 -45.04936 168.43825 10019 ft 249 kts 353°
2026-05-09 05:34 -45.03206 168.44031 10014 ft 249 kts 353°
2026-05-09 05:34 -45.01500 168.44223 10015 ft 249 kts 353°
2026-05-09 05:35 -44.99759 168.44612 10038 ft 266 kts 10°
2026-05-09 05:35 -44.98065 168.46110 10236 ft 310 kts 40°
2026-05-09 05:35 -44.96600 168.48533 10458 ft 337 kts 46°
2026-05-09 05:35 -44.95612 168.50307 10587 ft 353 kts 48°
2026-05-09 05:36 -44.93569 168.54137 10825 ft 383 kts 50°
2026-05-09 05:36 -44.92474 168.56226 10938 ft 397 kts 50°
2026-05-09 05:36 -44.90831 168.59362 11349 ft 406 kts 50°
2026-05-09 05:36 -44.89127 168.62587 11894 ft 412 kts 50°
2026-05-09 05:37 -44.87389 168.65835 12496 ft 416 kts 50°
2026-05-09 05:37 -44.85620 168.69104 13087 ft 421 kts 50°
2026-05-09 05:37 -44.83820 168.72401 13623 ft 426 kts 50°
2026-05-09 05:37 -44.82023 168.75680 14166 ft 429 kts 51°
2026-05-09 05:38 -44.80184 168.79032 14694 ft 433 kts 51°
2026-05-09 05:38 -44.78335 168.82407 15227 ft 436 kts 51°
2026-05-09 05:38 -44.76473 168.85810 15759 ft 439 kts 51°
2026-05-09 05:38 -44.74603 168.89229 16305 ft 440 kts 51°
2026-05-09 05:39 -44.72749 168.92612 16829 ft 444 kts 51°
2026-05-09 05:39 -44.70735 168.95927 17358 ft 446 kts 43°
2026-05-09 05:39 -44.68369 168.98760 17872 ft 446 kts 32°
2026-05-09 05:39 -44.65719 169.01012 18329 ft 444 kts 22°
2026-05-09 05:40 -44.62899 169.02798 18841 ft 445 kts 20°
2026-05-09 05:40 -44.60062 169.04568 19356 ft 447 kts 20°
2026-05-09 05:40 -44.57245 169.06335 19843 ft 450 kts 20°
2026-05-09 05:40 -44.54375 169.08139 20330 ft 452 kts 21°
2026-05-09 05:41 -44.51572 169.10211 20771 ft 457 kts 27°
2026-05-09 05:41 -44.48805 169.12448 21212 ft 459 kts 27°
2026-05-09 05:41 -44.46025 169.14692 21671 ft 460 kts 27°
2026-05-09 05:41 -44.43271 169.16906 22148 ft 461 kts 27°
2026-05-09 05:42 -44.40478 169.19143 22594 ft 463 kts 27°
2026-05-09 05:42 -44.37667 169.21388 23035 ft 465 kts 27°
2026-05-09 05:42 -44.34844 169.23639 23409 ft 467 kts 27°
2026-05-09 05:42 -44.32006 169.25897 23757 ft 470 kts 27°
2026-05-09 05:43 -44.29157 169.28163 24079 ft 472 kts 27°
2026-05-09 05:43 -44.26297 169.30436 24418 ft 474 kts 27°
2026-05-09 05:43 -44.23454 169.32695 24749 ft 477 kts 27°
2026-05-09 05:43 -44.20553 169.34994 25065 ft 479 kts 27°
2026-05-09 05:44 -44.17646 169.37297 25407 ft 481 kts 27°
2026-05-09 05:44 -44.14734 169.39605 25744 ft 483 kts 26°
2026-05-09 05:44 -44.11800 169.41930 26076 ft 485 kts 27°
2026-05-09 05:44 -44.08886 169.44234 26430 ft 488 kts 26°
2026-05-09 05:45 -44.05914 169.46581 26686 ft 492 kts 26°
2026-05-09 05:45 -44.02917 169.48938 26988 ft 495 kts 26°
2026-05-09 05:45 -43.99917 169.51298 27315 ft 497 kts 26°
2026-05-09 05:45 -43.96896 169.53668 27752 ft 497 kts 26°
2026-05-09 05:46 -43.93888 169.56024 28170 ft 496 kts 26°
2026-05-09 05:46 -43.90906 169.58357 28533 ft 497 kts 26°
2026-05-09 05:46 -43.87892 169.60717 28957 ft 498 kts 26°
2026-05-09 05:46 -43.84880 169.63075 29415 ft 497 kts 26°
2026-05-09 05:47 -43.81856 169.65437 29862 ft 497 kts 26°
2026-05-09 05:47 -43.78843 169.67787 30216 ft 497 kts 26°
2026-05-09 05:47 -43.75826 169.70138 30575 ft 497 kts 26°
2026-05-09 05:47 -43.72841 169.72463 30950 ft 496 kts 26°
2026-05-09 05:48 -43.69832 169.74804 31334 ft 496 kts 26°
2026-05-09 05:48 -43.66811 169.77149 31704 ft 497 kts 27°
2026-05-09 05:48 -43.63786 169.79494 32068 ft 497 kts 27°
2026-05-09 05:48 -43.60767 169.81834 32460 ft 497 kts 27°
2026-05-09 05:49 -43.57752 169.84164 32884 ft 496 kts 27°
2026-05-09 05:49 -43.54776 169.86463 33262 ft 495 kts 28°
2026-05-09 05:49 -43.51774 169.88782 33648 ft 494 kts 28°
2026-05-09 05:49 -43.48810 169.91203 33956 ft 494 kts 34°
2026-05-09 05:50 -43.46094 169.94099 34298 ft 493 kts 40°
2026-05-09 05:50 -43.43490 169.97151 34646 ft 491 kts 40°
2026-05-09 05:50 -43.40886 170.00193 35001 ft 489 kts 40°
2026-05-09 05:50 -43.38295 170.03211 35341 ft 486 kts 40°
2026-05-09 05:51 -43.35719 170.06205 35725 ft 483 kts 40°
2026-05-09 05:51 -43.33188 170.09144 36067 ft 481 kts 40°
2026-05-09 05:51 -43.30634 170.12111 36401 ft 479 kts 40°
2026-05-09 05:51 -43.28090 170.15068 36602 ft 479 kts 40°
2026-05-09 05:52 -43.22957 170.21029 36635 ft 484 kts 40°
2026-05-09 05:52 -43.17798 170.26993 36638 ft 485 kts 40°
2026-05-09 05:53 -43.12659 170.32917 36640 ft 486 kts 40°
2026-05-09 05:53 -43.07469 170.38873 36643 ft 486 kts 40°
2026-05-09 05:54 -43.02279 170.44825 36630 ft 486 kts 41°
2026-05-09 05:54 -42.97136 170.50740 36643 ft 486 kts 40°
2026-05-09 05:55 -42.91939 170.56688 36675 ft 486 kts 40°
2026-05-09 05:55 -42.86786 170.62567 36675 ft 485 kts 40°
2026-05-09 05:56 -42.81589 170.68476 36678 ft 484 kts 40°
2026-05-09 05:56 -42.76434 170.74320 36681 ft 483 kts 40°
2026-05-09 05:57 -42.71258 170.80174 36673 ft 482 kts 40°
2026-05-09 05:57 -42.66081 170.86009 36676 ft 482 kts 40°
2026-05-09 05:58 -42.60930 170.91833 36700 ft 482 kts 40°
2026-05-09 05:58 -42.55808 170.97612 36689 ft 481 kts 40°
2026-05-09 05:59 -42.50649 171.03394 36687 ft 480 kts 40°
2026-05-09 05:59 -42.45496 171.09168 36689 ft 480 kts 40°
2026-05-09 06:00 -42.40334 171.14939 36687 ft 480 kts 40°
2026-05-09 06:00 -42.35218 171.20639 36688 ft 480 kts 40°
2026-05-09 06:01 -42.30068 171.26369 36687 ft 480 kts 40°
2026-05-09 06:01 -42.24898 171.32104 36688 ft 480 kts 40°
2026-05-09 06:02 -42.19721 171.37832 36674 ft 481 kts 40°
2026-05-09 06:02 -42.14571 171.43520 36680 ft 482 kts 40°
2026-05-09 06:03 -42.09366 171.49274 36673 ft 482 kts 40°
2026-05-09 06:03 -42.04205 171.54964 36670 ft 482 kts 40°
2026-05-09 06:04 -41.98997 171.60676 36679 ft 482 kts 40°
2026-05-09 06:04 -41.93907 171.66575 36700 ft 482 kts 43°
2026-05-09 06:05 -41.89017 171.72672 36706 ft 481 kts 44°
2026-05-09 06:05 -41.84112 171.78788 36711 ft 479 kts 43°
2026-05-09 06:06 -41.79210 171.84756 36707 ft 478 kts 43°
2026-05-09 06:06 -41.74263 171.90713 36707 ft 477 kts 43°
2026-05-09 06:07 -41.69324 171.96658 36694 ft 476 kts 43°
2026-05-09 06:07 -41.64395 172.02598 36700 ft 476 kts 43°
2026-05-09 06:08 -41.59496 172.08487 36707 ft 475 kts 43°
2026-05-09 06:08 -41.54583 172.14379 36701 ft 474 kts 43°
2026-05-09 06:09 -41.49682 172.20234 36678 ft 474 kts 43°
2026-05-09 06:09 -41.44747 172.26136 36658 ft 479 kts 43°
2026-05-09 06:10 -41.39795 172.32051 36661 ft 477 kts 43°
2026-05-09 06:10 -41.34880 172.37897 36663 ft 476 kts 43°
2026-05-09 06:11 -41.29925 172.43780 36635 ft 472 kts 42°
2026-05-09 06:11 -41.25076 172.49524 36641 ft 468 kts 42°
2026-05-09 06:12 -41.20197 172.55278 36646 ft 468 kts 42°
2026-05-09 06:12 -41.15321 172.61024 36647 ft 468 kts 42°
2026-05-09 06:13 -41.10451 172.66771 36649 ft 468 kts 42°
2026-05-09 06:13 -41.05605 172.72484 36626 ft 469 kts 42°
2026-05-09 06:14 -41.00721 172.78211 36633 ft 469 kts 42°
2026-05-09 06:14 -40.95825 172.83939 36635 ft 469 kts 42°
2026-05-09 06:15 -40.90923 172.89662 36622 ft 469 kts 42°
2026-05-09 06:15 -40.86041 172.95345 36620 ft 470 kts 42°
2026-05-09 06:16 -40.81145 173.01026 36614 ft 470 kts 42°
2026-05-09 06:16 -40.76233 173.06730 36626 ft 470 kts 42°
2026-05-09 06:17 -40.71319 173.12433 36621 ft 471 kts 42°
2026-05-09 06:17 -40.66385 173.18135 36601 ft 472 kts 41°
2026-05-09 06:18 -40.61422 173.23842 36612 ft 473 kts 41°
2026-05-09 06:18 -40.56488 173.29516 36622 ft 474 kts 41°
2026-05-09 06:19 -40.51513 173.35234 36623 ft 474 kts 41°
2026-05-09 06:19 -40.46529 173.40949 36618 ft 475 kts 41°
2026-05-09 06:20 -40.41540 173.46659 36628 ft 476 kts 41°
2026-05-09 06:20 -40.36548 173.52347 36644 ft 475 kts 41°
2026-05-09 06:21 -40.31575 173.57991 36659 ft 474 kts 40°
2026-05-09 06:21 -40.26581 173.63661 36662 ft 474 kts 40°
2026-05-09 06:22 -40.21592 173.69304 36665 ft 473 kts 40°
2026-05-09 06:22 -40.16641 173.74885 36673 ft 472 kts 40°
2026-05-09 06:23 -40.11666 173.80510 36678 ft 472 kts 40°
2026-05-09 06:23 -40.06691 173.86132 36665 ft 471 kts 39°
2026-05-09 06:24 -40.01741 173.91688 36676 ft 471 kts 38°
2026-05-09 06:24 -39.96768 173.97251 36689 ft 469 kts 39°
2026-05-09 06:25 -39.92649 174.01860 36702 ft 468 kts 39°
2026-05-09 06:25 -39.87707 174.07382 36698 ft 467 kts 38°
2026-05-09 06:26 -39.81963 174.13779 36703 ft 467 kts 38°
2026-05-09 06:26 -39.77857 174.18349 36716 ft 466 kts 38°
2026-05-09 06:27 -39.72919 174.23822 36713 ft 466 kts 38°
2026-05-09 06:27 -39.67987 174.29284 36708 ft 465 kts 37°
2026-05-09 06:28 -39.63088 174.34705 36723 ft 464 kts 38°
2026-05-09 06:28 -39.58169 174.40137 36726 ft 463 kts 38°
2026-05-09 06:29 -39.53268 174.45529 36728 ft 461 kts 37°
2026-05-09 06:29 -39.47815 174.49726 36725 ft 453 kts 18°
2026-05-09 06:30 -39.41771 174.51572 36722 ft 447 kts
2026-05-09 06:30 -39.35595 174.52755 36729 ft 447 kts
2026-05-09 06:31 -39.29435 174.53943 36730 ft 447 kts
2026-05-09 06:31 -39.23311 174.55116 36729 ft 447 kts
2026-05-09 06:32 -39.17157 174.56281 36730 ft 446 kts
2026-05-09 06:33 -39.07970 174.58019 36738 ft 446 kts
2026-05-09 06:33 -39.01832 174.59198 36736 ft 445 kts
2026-05-09 06:34 -38.92658 174.60946 36739 ft 444 kts
2026-05-09 06:34 -38.86537 174.62102 36611 ft 444 kts
2026-05-09 06:35 -38.83514 174.62675 36355 ft 443 kts
2026-05-09 06:35 -38.80456 174.63254 36111 ft 443 kts
2026-05-09 06:35 -38.77400 174.63828 35862 ft 443 kts
2026-05-09 06:35 -38.74353 174.64400 35609 ft 443 kts
2026-05-09 06:36 -38.71331 174.64968 35367 ft 442 kts
2026-05-09 06:36 -38.68284 174.65542 35128 ft 443 kts
2026-05-09 06:36 -38.65227 174.66119 34890 ft 443 kts
2026-05-09 06:36 -38.62175 174.66694 34571 ft 443 kts
2026-05-09 06:37 -38.59100 174.67273 33808 ft 448 kts
2026-05-09 06:37 -38.55995 174.67854 32853 ft 453 kts
2026-05-09 06:37 -38.52907 174.68432 31986 ft 455 kts
2026-05-09 06:37 -38.49773 174.69004 31336 ft 451 kts
2026-05-09 06:38 -38.46683 174.69473 30243 ft 444 kts
2026-05-09 06:38 -38.43607 174.69845 28722 ft 443 kts 359°
2026-05-09 06:38 -38.40554 174.70155 27387 ft 437 kts 359°
2026-05-09 06:38 -38.37547 174.70445 26844 ft 426 kts 360°
2026-05-09 06:39 -38.34651 174.70734 26267 ft 419 kts
2026-05-09 06:39 -38.31762 174.71041 25677 ft 415 kts
2026-05-09 06:39 -38.28898 174.71361 25095 ft 410 kts
2026-05-09 06:39 -38.26062 174.71690 24512 ft 407 kts
2026-05-09 06:40 -38.23238 174.72025 23938 ft 403 kts
2026-05-09 06:40 -38.20490 174.72353 23375 ft 400 kts
2026-05-09 06:40 -38.17732 174.72681 22748 ft 397 kts
2026-05-09 06:40 -38.14995 174.73004 22208 ft 392 kts
2026-05-09 06:41 -38.12288 174.73321 21669 ft 388 kts
2026-05-09 06:41 -38.09609 174.73630 21155 ft 384 kts
2026-05-09 06:41 -38.06948 174.73934 20646 ft 381 kts
2026-05-09 06:41 -38.04316 174.74235 20172 ft 377 kts
2026-05-09 06:42 -38.01748 174.74531 19709 ft 374 kts
2026-05-09 06:42 -37.99162 174.74830 19240 ft 371 kts
2026-05-09 06:42 -37.96600 174.75124 18778 ft 367 kts
2026-05-09 06:42 -37.94057 174.75415 18312 ft 365 kts
2026-05-09 06:43 -37.91531 174.75706 17795 ft 363 kts
2026-05-09 06:43 -37.89029 174.75995 17299 ft 359 kts
2026-05-09 06:43 -37.86575 174.76278 16812 ft 357 kts
2026-05-09 06:43 -37.84105 174.76560 16312 ft 355 kts
2026-05-09 06:44 -37.81656 174.76841 15804 ft 353 kts
2026-05-09 06:44 -37.79208 174.77120 15293 ft 351 kts
2026-05-09 06:44 -37.76780 174.77395 14841 ft 350 kts
2026-05-09 06:44 -37.74288 174.77675 14715 ft 366 kts
2026-05-09 06:45 -37.71726 174.77966 14619 ft 373 kts
2026-05-09 06:45 -37.69110 174.78267 13646 ft 383 kts
2026-05-09 06:45 -37.66434 174.78576 12765 ft 386 kts
2026-05-09 06:45 -37.63807 174.78883 12191 ft 381 kts
2026-05-09 06:46 -37.61183 174.79189 11620 ft 375 kts
2026-05-09 06:46 -37.58592 174.79488 11040 ft 370 kts
2026-05-09 06:46 -37.56048 174.79780 10657 ft 361 kts
2026-05-09 06:46 -37.53601 174.80062 10530 ft 345 kts
2026-05-09 06:47 -37.51284 174.80329 10405 ft 331 kts
2026-05-09 06:47 -37.49034 174.80588 10284 ft 319 kts
2026-05-09 06:47 -37.46857 174.80835 10167 ft 308 kts
2026-05-09 06:47 -37.44757 174.81073 10041 ft 298 kts
2026-05-09 06:48 -37.42705 174.81304 9741 ft 296 kts
2026-05-09 06:48 -37.40670 174.81529 9483 ft 291 kts
2026-05-09 06:48 -37.38649 174.81755 9125 ft 290 kts
2026-05-09 06:48 -37.36651 174.81979 8639 ft 286 kts
2026-05-09 06:49 -37.34699 174.82200 8036 ft 283 kts
2026-05-09 06:49 -37.32742 174.82422 7439 ft 281 kts
2026-05-09 06:49 -37.30800 174.82642 6906 ft 277 kts
2026-05-09 06:49 -37.28890 174.82858 6381 ft 275 kts
2026-05-09 06:50 -37.26977 174.83074 6063 ft 274 kts
2026-05-09 06:50 -37.25110 174.83288 5684 ft 271 kts
2026-05-09 06:50 -37.23232 174.83502 5190 ft 270 kts
2026-05-09 06:50 -37.21371 174.83712 4634 ft 268 kts
2026-05-09 06:51 -37.19519 174.83919 4107 ft 263 kts
2026-05-09 06:51 -37.17680 174.84130 3650 ft 268 kts
2026-05-09 06:51 -37.15881 174.84620 3438 ft 264 kts
2026-05-09 06:51 -37.14126 174.85143 3320 ft 255 kts 10°
2026-05-09 06:52 -37.12428 174.85647 3208 ft 245 kts
2026-05-09 06:52 -37.10800 174.86129 3100 ft 235 kts
2026-05-09 06:52 -37.09236 174.86593 2999 ft 225 kts
2026-05-09 06:52 -37.07714 174.87043 2679 ft 226 kts
2026-05-09 06:53 -37.06212 174.87484 2357 ft 221 kts
2026-05-09 06:53 -37.04746 174.87916 2046 ft 211 kts 10°
2026-05-09 06:53 -37.03342 174.88330 1763 ft 205 kts
2026-05-09 06:53 -37.01983 174.88362 1509 ft 186 kts 343°
2026-05-09 06:54 -37.00870 174.87743 1264 ft 168 kts 320°
2026-05-09 06:54 -37.00129 174.86753 1081 ft 146 kts 300°
2026-05-09 06:54 -36.99744 174.85617 869 ft 139 kts 283°
2026-05-09 06:54 -36.99681 174.84411 694 ft 139 kts 264°
2026-05-09 06:55 -36.99924 174.83240 515 ft 139 kts 252°
2026-05-09 06:55 -37.00241 174.82110 330 ft 136 kts 252°
2026-05-09 06:55 -37.00551 174.80997 149 ft 135 kts 251°
2026-05-09 06:55 -37.00815 174.80036 38 ft 131 kts 251°
2026-05-09 06:56 -37.01009 174.79358 27 ft 98 kts 252°
2026-05-09 06:56 -37.01126 174.78884 27 ft 59 kts 252°
2026-05-09 06:56 -37.01205 174.78611 25 ft 19 kts 241°
2026-05-09 06:56 -37.01221 174.78555 25 ft 2 kts 248°
2026-05-09 06:57 -37.01237 174.78484 26 ft 16 kts 261°
2026-05-09 06:57 -37.01245 174.78356 26 ft 13 kts 271°
2026-05-09 06:57 -37.01238 174.78251 28 ft 12 kts 277°
2026-05-09 06:57 -37.01225 174.78145 26 ft 10 kts 281°
2026-05-09 06:58 -37.01173 174.78106 27 ft 10 kts 13°
2026-05-09 06:58 -37.01142 174.78155 26 ft 4 kts 65°
2026-05-09 06:58 -37.01137 174.78169 29 ft 0 kts 66°
2026-05-09 06:58 -37.01135 174.78177 28 ft 5 kts 68°
2026-05-09 06:59 -37.01119 174.78243 26 ft 11 kts 75°
2026-05-09 06:59 -37.01093 174.78335 27 ft 12 kts 69°
2026-05-09 06:59 -37.01062 174.78435 29 ft 13 kts 69°
2026-05-09 06:59 -37.01035 174.78543 28 ft 14 kts 73°
2026-05-09 07:00 -37.01006 174.78649 28 ft 6 kts 71°
2026-05-09 07:00 -37.00986 174.78719 26 ft 13 kts 70°
2026-05-09 07:00 -37.00958 174.78815 27 ft 10 kts 70°
2026-05-09 07:00 -37.00945 174.78862 25 ft 9 kts 70°
2026-05-09 07:01 -37.00918 174.78963 27 ft 17 kts 71°
2026-05-09 07:01 -37.00888 174.79067 27 ft 12 kts 70°
2026-05-09 07:01 -37.00824 174.79101 27 ft 0 kts 341°
2026-05-09 07:01 -37.00801 174.79114 27 ft 8 kts 40°
2026-05-09 07:02 -37.00776 174.79162 29 ft 0 kts 66°
2026-05-09 07:02 -37.00762 174.79163 28 ft 0 kts
2026-05-09 07:02 -37.00756 174.79163 26 ft 2 kts
2026-05-09 07:02 -37.00730 174.79158 25 ft 1 kts 345°
2026-05-09 07:03 -37.00721 174.79154 28 ft 3 kts 342°
2026-05-09 07:03 -37.00709 174.79149 27 ft 0 kts 342°
2026-05-09 07:03 -37.00700 174.79145 28 ft 0 kts 342°